Location: Chefe Valiua
(16.5342°S, 37.2214°E)
Time: 05:56:45
(UTC+00:00)

BREEZE-M DEB (TANK) - Pass Details

Date: 19 January 2021
Orbit: 300 x 16732 km, 49.5° (Epoch: 07 March)

Event Time Altitude Azimuth Distance (km) Brightness Sun altitude
Rises 16:35:48 0° 219° (SW) 4,602 8.8 -6.4°
Reaches altitude 10° 16:40:11 10° 216° (SW) 2,437 7.2 -7.3°
Maximum altitude 16:44:35 60° 135° (SE) 473 2.4 -8.3°
Enters shadow 16:46:33 12° 53° (NE) 1,113 3.8 -8.7°
